User: anonymous   Login
Location: ???????
(54.9996°N, 37.9529°E)
Time: 02:30:01
(UTC+00:00)
Language:

Cosmos 1766 Rocket - Orbit

View from above orbital plane
View from above orbital plane
View from above satellite
View from above satellite

Ground track
Ground track

The orbit data is extracted from the following two-line orbital elements,

1 16882U 86055B   24167.61811508  .00000716  00000-0  82174-4 0  9999
2 16882  82.5209   0.2806 0017840 261.2286 162.4057 14.84423472 25557
Epoch (UTC): 15 June 2024 14:50:05
Eccentricity: 0.0017840
inclination: 82.5209°
perigee height: 603 km
apogee height: 628 km
right ascension of ascending node: 0.2806°
argument of perigee: 261.2286°
revolutions per day: 14.84423472
mean anomaly at epoch: 162.4057°
orbit number at epoch: 2555

The dashed part of the orbit path shows where the satellite is in the earth's shadow,  

DLR